Time,TemperatureF,DewpointF,PressureIn,WindDirection,WindDirectionDegrees,WindSpeedMPH,WindSpeedGustMPH,Humidity,HourlyPrecipIn,Conditions,Clouds,dailyrainin,SoftwareType,DateUTC
2013-04-07 00:01:00,63.0,57.0,30.10,SSW,208,0.0,0.0,81,0.00,CLR,,0.00,WeatherDisplay:10.37,2013-04-06 13:01:00,
2013-04-07 00:07:00,62.8,56.9,30.10,SSW,200,0.0,0.0,81,0.00,CLR,,0.00,WeatherDisplay:10.37,2013-04-06 13:07:00,
2013-04-07 00:17:00,62.8,56.9,30.10,South,185,0.0,0.0,81,0.00,CLR,,0.00,WeatherDisplay:10.37,2013-04-06 13:17:00,
2013-04-07 00:27:00,62.8,56.9,30.10,SW,228,0.0,0.0,81,0.00,CLR,,0.00,WeatherDisplay:10.37,2013-04-06 13:27:00,
2013-04-07 00:32:00,62.8,56.9,30.10,SW,219,0.0,0.0,81,0.00,CLR,,0.00,WeatherDisplay:10.37,2013-04-06 13:32:00,
2013-04-07 00:36:00,62.8,56.9,30.10,SSW,196,0.0,0.0,81,0.00,CLR,,0.00,WeatherDisplay:10.37,2013-04-06 13:36:00,
2013-04-07 00:41:00,62.8,56.8,30.10,ESE,108,0.0,0.0,81,0.00,CLR,,0.00,WeatherDisplay:10.37,2013-04-06 13:41:00,
2013-04-07 00:47:00,62.6,56.7,30.10,NE,43,0.0,0.0,81,0.00,CLR,,0.00,WeatherDisplay:10.37,2013-04-06 13:47:00,
2013-04-07 00:51:00,62.6,56.7,30.10,NE,45,0.0,0.0,81,0.00,CLR,,0.00,WeatherDisplay:10.37,2013-04-06 13:51:00,
2013-04-07 00:56:00,62.4,56.5,30.09,NE,37,0.0,0.0,81,0.00,CLR,,0.00,WeatherDisplay:10.37,2013-04-06 13:56:00,
2013-04-07 01:02:00,62.4,56.5,30.09,NE,44,0.0,0.0,81,0.00,CLR,,0.00,WeatherDisplay:10.37,2013-04-06 14:02:00,
2013-04-07 01:12:00,62.2,56.3,30.09,ENE,68,0.0,0.0,81,0.00,CLR,,0.00,WeatherDisplay:10.37,2013-04-06 14:12:00,
2013-04-07 01:16:00,62.1,56.2,30.09,ENE,68,0.0,0.0,81,0.00,CLR,,0.00,WeatherDisplay:10.37,2013-04-06 14:16:00,
2013-04-07 01:21:00,61.9,56.0,30.09,ENE,63,0.0,0.0,81,0.00,CLR,,0.00,WeatherDisplay:10.37,2013-04-06 14:21:00,
2013-04-07 01:26:00,61.9,56.0,30.08,ENE,61,0.0,0.0,81,0.00,CLR,,0.00,WeatherDisplay:10.37,2013-04-06 14:26:00,
2013-04-07 01:31:00,61.9,56.0,30.09,ENE,65,0.0,0.0,81,0.00,CLR,,0.00,WeatherDisplay:10.37,2013-04-06 14:31:00,
2013-04-07 01:37:00,61.7,55.8,30.09,ENE,75,0.0,0.0,81,0.00,CLR,,0.00,WeatherDisplay:10.37,2013-04-06 14:37:00,
2013-04-07 01:41:00,61.5,55.6,30.09,ESE,109,0.0,0.0,81,0.00,CLR,,0.00,WeatherDisplay:10.37,2013-04-06 14:41:00,
2013-04-07 01:46:00,61.5,55.6,30.09,SE,134,0.0,0.0,81,0.00,CLR,,0.00,WeatherDisplay:10.37,2013-04-06 14:46:00,
2013-04-07 01:51:00,61.5,55.6,30.09,SE,135,0.0,0.0,81,0.00,CLR,,0.00,WeatherDisplay:10.37,2013-04-06 14:51:00,
2013-04-07 01:57:00,61.5,55.6,30.09,SE,135,0.0,0.0,81,0.00,CLR,,0.00,WeatherDisplay:10.37,2013-04-06 14:57:00,
2013-04-07 02:01:00,61.3,55.5,30.09,SE,136,0.0,0.0,81,0.00,CLR,,0.00,WeatherDisplay:10.37,2013-04-06 15:01:00,
2013-04-07 02:06:00,61.3,55.5,30.08,ESE,106,0.0,0.0,81,0.00,CLR,,0.00,WeatherDisplay:10.37,2013-04-06 15:06:00,
2013-04-07 02:11:00,61.3,55.5,30.08,NE,52,0.0,0.0,81,0.00,CLR,,0.00,WeatherDisplay:10.37,2013-04-06 15:11:00,
2013-04-07 02:16:00,61.3,55.4,30.08,NE,38,0.0,0.0,81,0.00,CLR,,0.00,WeatherDisplay:10.37,2013-04-06 15:16:00,
2013-04-07 02:21:00,61.2,55.3,30.08,NNE,24,0.0,0.0,81,0.00,CLR,,0.00,WeatherDisplay:10.37,2013-04-06 15:21:00,
2013-04-07 02:26:00,61.2,55.3,30.08,North,2,0.0,0.0,81,0.00,CLR,,0.00,WeatherDisplay:10.37,2013-04-06 15:26:00,
2013-04-07 02:31:00,61.2,55.3,30.08,North,358,0.0,0.0,81,0.00,CLR,,0.00,WeatherDisplay:10.37,2013-04-06 15:31:00,
2013-04-07 02:37:00,61.0,55.1,30.08,NNE,23,0.0,0.0,81,0.00,CLR,,0.00,WeatherDisplay:10.37,2013-04-06 15:37:00,
2013-04-07 02:42:00,61.0,55.1,30.08,East,96,0.0,0.0,81,0.00,CLR,,0.00,WeatherDisplay:10.37,2013-04-06 15:42:00,
2013-04-07 02:51:00,60.6,54.8,30.08,ESE,110,0.0,0.0,81,0.00,CLR,,0.00,WeatherDisplay:10.37,2013-04-06 15:51:00,
2013-04-07 02:57:00,60.6,54.8,30.07,ESE,108,0.0,0.0,81,0.00,CLR,,0.00,WeatherDisplay:10.37,2013-04-06 15:57:00,
2013-04-07 02:06:00,60.6,54.8,30.07,East,84,0.0,0.0,81,0.00,CLR,,0.00,WeatherDisplay:10.37,2013-04-06 16:06:00,
2013-04-07 02:11:00,60.4,54.6,30.07,NE,50,0.0,0.0,81,0.00,CLR,,0.00,WeatherDisplay:10.37,2013-04-06 16:11:00,
2013-04-07 02:17:00,60.4,54.9,30.07,NE,44,0.0,0.0,82,0.00,CLR,,0.00,WeatherDisplay:10.37,2013-04-06 16:17:00,
2013-04-07 02:31:00,60.4,54.9,30.06,SSE,156,0.0,0.0,82,0.00,CLR,,0.00,WeatherDisplay:10.37,2013-04-06 16:31:00,
2013-04-07 02:36:00,60.4,54.9,30.06,South,178,0.0,0.0,82,0.00,CLR,,0.00,WeatherDisplay:10.37,2013-04-06 16:36:00,
2013-04-07 02:41:00,60.2,54.7,30.06,South,180,0.0,0.0,82,0.00,CLR,,0.00,WeatherDisplay:10.37,2013-04-06 16:41:00,
2013-04-07 02:46:00,60.1,54.6,30.06,South,175,0.0,0.0,82,0.00,CLR,,0.00,WeatherDisplay:10.37,2013-04-06 16:46:00,
2013-04-07 02:52:00,60.1,54.6,30.06,South,177,0.0,0.0,82,0.00,CLR,,0.00,WeatherDisplay:10.37,2013-04-06 16:52:00,
2013-04-07 03:02:00,60.1,54.6,30.06,South,184,0.0,0.0,82,0.00,CLR,,0.00,WeatherDisplay:10.37,2013-04-06 17:02:00,
2013-04-07 03:07:00,59.9,54.4,30.06,South,184,0.0,0.0,82,0.00,CLR,,0.00,WeatherDisplay:10.37,2013-04-06 17:07:00,
2013-04-07 03:12:00,59.9,54.4,30.06,South,180,0.0,0.0,82,0.00,CLR,,0.00,WeatherDisplay:10.37,2013-04-06 17:12:00,
2013-04-07 03:22:00,59.8,54.3,30.06,SSE,166,0.0,0.0,82,0.00,CLR,,0.00,WeatherDisplay:10.37,2013-04-06 17:22:00,
2013-04-07 03:27:00,59.7,54.2,30.06,South,174,0.0,0.0,82,0.00,CLR,,0.00,WeatherDisplay:10.37,2013-04-06 17:27:00,
2013-04-07 03:31:00,59.7,54.2,30.06,South,175,0.0,0.0,82,0.00,CLR,,0.00,WeatherDisplay:10.37,2013-04-06 17:31:00,
2013-04-07 03:37:00,59.7,54.2,30.06,SSE,168,0.0,0.0,82,0.00,CLR,,0.00,WeatherDisplay:10.37,2013-04-06 17:37:00,
2013-04-07 03:41:00,59.6,54.1,30.06,SSW,204,0.0,0.0,82,0.00,CLR,,0.00,WeatherDisplay:10.37,2013-04-06 17:41:00,
2013-04-07 03:46:00,59.5,54.0,30.07,SW,222,0.0,0.0,82,0.00,CLR,,0.00,WeatherDisplay:10.37,2013-04-06 17:46:00,
2013-04-07 03:51:00,59.5,54.0,30.06,SSW,193,0.0,0.0,82,0.00,CLR,,0.00,WeatherDisplay:10.37,2013-04-06 17:51:00,
2013-04-07 03:56:00,59.5,54.0,30.07,SE,132,0.0,0.0,82,0.00,CLR,,0.00,WeatherDisplay:10.37,2013-04-06 17:56:00,
2013-04-07 04:01:00,59.4,53.9,30.06,ENE,69,0.0,0.0,82,0.00,CLR,,0.00,WeatherDisplay:10.37,2013-04-06 18:01:00,
2013-04-07 04:06:00,59.2,53.7,30.07,ENE,65,0.0,0.0,82,0.00,CLR,,0.00,WeatherDisplay:10.37,2013-04-06 18:06:00,
2013-04-07 04:12:00,59.2,53.7,30.06,ENE,67,0.0,0.0,82,0.00,CLR,,0.00,WeatherDisplay:10.37,2013-04-06 18:12:00,
2013-04-07 04:22:00,59.0,53.5,30.06,ENE,58,0.0,0.0,82,0.00,CLR,,0.00,WeatherDisplay:10.37,2013-04-06 18:22:00,
2013-04-07 04:31:00,58.8,53.3,30.06,ENE,67,0.0,0.0,82,0.00,CLR,,0.00,WeatherDisplay:10.37,2013-04-06 18:31:00,
2013-04-07 04:36:00,58.8,53.3,30.06,NE,53,0.0,0.0,82,0.00,CLR,,0.00,WeatherDisplay:10.37,2013-04-06 18:36:00,
2013-04-07 04:42:00,58.6,53.2,30.06,NE,35,0.0,0.0,82,0.00,CLR,,0.00,WeatherDisplay:10.37,2013-04-06 18:42:00,
2013-04-07 04:47:00,58.6,53.2,30.06,NNE,24,0.0,0.0,82,0.00,CLR,,0.00,WeatherDisplay:10.37,2013-04-06 18:47:00,
2013-04-07 04:57:00,58.5,53.3,30.07,NE,38,0.0,0.0,83,0.00,CLR,,0.00,WeatherDisplay:10.37,2013-04-06 18:57:00,
2013-04-07 05:02:00,58.3,53.1,30.07,East,89,0.0,0.0,83,0.00,CLR,,0.00,WeatherDisplay:10.37,2013-04-06 19:02:00,
2013-04-07 05:11:00,58.3,53.1,30.07,North,360,0.0,0.0,83,0.00,CLR,,0.00,WeatherDisplay:10.37,2013-04-06 19:11:00,
2013-04-07 05:17:00,58.3,53.1,30.07,NNE,13,0.0,0.0,83,0.00,CLR,,0.00,WeatherDisplay:10.37,2013-04-06 19:17:00,
2013-04-07 05:27:00,58.3,53.1,30.08,NW,308,0.0,0.0,83,0.00,CLR,,0.00,WeatherDisplay:10.37,2013-04-06 19:27:00,
2013-04-07 05:32:00,58.3,53.1,30.07,NNE,16,0.0,0.0,83,0.00,CLR,,0.00,WeatherDisplay:10.37,2013-04-06 19:32:00,
2013-04-07 05:36:00,58.3,53.1,30.08,ENE,66,0.0,0.0,83,0.00,CLR,,0.00,WeatherDisplay:10.37,2013-04-06 19:36:00,
2013-04-07 05:41:00,58.3,53.1,30.08,East,93,0.0,2.0,83,0.00,CLR,,0.00,WeatherDisplay:10.37,2013-04-06 19:41:00,
2013-04-07 05:46:00,58.3,53.1,30.08,East,80,0.0,0.0,83,0.00,CLR,,0.00,WeatherDisplay:10.37,2013-04-06 19:46:00,
2013-04-07 05:52:00,58.3,53.1,30.08,NE,38,0.0,0.0,83,0.00,CLR,,0.00,WeatherDisplay:10.37,2013-04-06 19:52:00,
2013-04-07 06:02:00,58.3,53.1,30.09,NW,322,0.0,0.0,83,0.00,CLR,,0.00,WeatherDisplay:10.37,2013-04-06 20:02:00,
2013-04-07 06:16:00,58.3,53.1,30.09,NW,312,0.0,0.0,83,0.00,CLR,,0.00,WeatherDisplay:10.37,2013-04-06 20:16:00,
2013-04-07 06:26:00,58.1,53.0,30.09,NW,326,0.0,0.0,83,0.00,CLR,,0.00,WeatherDisplay:10.37,2013-04-06 20:26:00,
2013-04-07 06:31:00,58.0,52.9,30.09,North,350,0.0,0.0,83,0.00,CLR,,0.00,WeatherDisplay:10.37,2013-04-06 20:31:00,
2013-04-07 06:36:00,57.9,52.8,30.09,NNE,26,0.0,0.0,83,0.00,CLR,,0.00,WeatherDisplay:10.37,2013-04-06 20:36:00,
2013-04-07 06:41:00,57.9,52.8,30.09,NE,38,0.0,0.0,83,0.00,CLR,,0.00,WeatherDisplay:10.37,2013-04-06 20:41:00,
2013-04-07 06:47:00,57.9,52.8,30.10,NE,39,0.0,0.0,83,0.00,CLR,,0.00,WeatherDisplay:10.37,2013-04-06 20:47:00,
2013-04-07 06:51:00,58.0,52.9,30.10,NE,43,0.0,0.0,83,0.00,CLR,,0.00,WeatherDisplay:10.37,2013-04-06 20:51:00,
2013-04-07 06:57:00,58.1,53.3,30.10,NE,39,0.0,0.0,84,0.00,CLR,,0.00,WeatherDisplay:10.37,2013-04-06 20:57:00,
2013-04-07 07:02:00,58.3,53.4,30.10,NNE,33,0.0,2.0,84,0.00,CLR,,0.00,WeatherDisplay:10.37,2013-04-06 21:02:00,
2013-04-07 07:06:00,58.3,53.5,30.10,NNE,31,0.0,0.0,84,0.00,CLR,,0.00,WeatherDisplay:10.37,2013-04-06 21:06:00,
2013-04-07 07:12:00,58.3,53.5,30.10,NE,34,0.0,0.0,84,0.00,CLR,,0.00,WeatherDisplay:10.37,2013-04-06 21:12:00,
2013-04-07 07:16:00,58.6,53.8,30.11,NE,39,0.0,0.0,84,0.00,CLR,,0.00,WeatherDisplay:10.37,2013-04-06 21:16:00,
2013-04-07 07:21:00,58.8,54.0,30.11,NE,44,0.0,0.0,84,0.00,CLR,,0.00,WeatherDisplay:10.37,2013-04-06 21:21:00,
2013-04-07 07:26:00,59.0,54.5,30.11,NE,42,0.0,2.0,85,0.00,CLR,,0.00,WeatherDisplay:10.37,2013-04-06 21:26:00,
2013-04-07 07:32:00,59.2,54.7,30.11,NNE,27,0.0,0.0,85,0.00,CLR,,0.00,WeatherDisplay:10.37,2013-04-06 21:32:00,
2013-04-07 07:37:00,59.5,55.0,30.11,North,357,0.0,0.0,85,0.00,CLR,,0.00,WeatherDisplay:10.37,2013-04-06 21:37:00,
2013-04-07 07:41:00,59.8,55.3,30.10,North,351,0.0,0.0,85,0.00,CLR,,0.00,WeatherDisplay:10.37,2013-04-06 21:41:00,
2013-04-07 07:46:00,60.2,55.7,30.10,North,359,0.0,0.0,85,0.00,CLR,,0.00,WeatherDisplay:10.37,2013-04-06 21:46:00,
2013-04-07 07:51:00,60.6,56.1,30.11,NNE,18,0.0,2.0,85,0.00,CLR,,0.00,WeatherDisplay:10.37,2013-04-06 21:51:00,
2013-04-07 07:56:00,61.0,56.5,30.11,North,354,0.0,0.0,85,0.00,CLR,,0.00,WeatherDisplay:10.37,2013-04-06 21:56:00,
2013-04-07 08:01:00,61.5,57.0,30.11,North,1,1.0,2.0,85,0.00,CLR,,0.00,WeatherDisplay:10.37,2013-04-06 22:01:00,
2013-04-07 08:06:00,61.9,57.3,30.11,NNE,32,0.0,0.0,85,0.00,CLR,,0.00,WeatherDisplay:10.37,2013-04-06 22:06:00,
2013-04-07 08:12:00,62.4,57.8,30.11,NNE,13,0.0,2.0,85,0.00,CLR,,0.00,WeatherDisplay:10.37,2013-04-06 22:12:00,
2013-04-07 08:16:00,63.0,58.4,30.12,NNE,19,0.0,0.0,85,0.00,CLR,,0.00,WeatherDisplay:10.37,2013-04-06 22:16:00,
2013-04-07 08:26:00,64.0,59.4,30.12,NE,36,0.0,2.0,85,0.00,CLR,,0.00,WeatherDisplay:10.37,2013-04-06 22:26:00,
2013-04-07 08:36:00,64.9,60.0,30.12,NE,47,1.0,5.0,84,0.00,CLR,,0.00,WeatherDisplay:10.37,2013-04-06 22:36:00,
2013-04-07 08:42:00,65.5,60.2,30.11,NNW,344,0.0,5.0,83,0.00,CLR,,0.00,WeatherDisplay:10.37,2013-04-06 22:42:00,
2013-04-07 08:47:00,66.1,60.7,30.12,SSW,207,0.0,4.0,83,0.00,CLR,,0.00,WeatherDisplay:10.37,2013-04-06 22:47:00,
2013-04-07 08:51:00,66.7,61.1,30.11,SSW,200,2.0,5.0,82,0.00,CLR,,0.00,WeatherDisplay:10.37,2013-04-06 22:51:00,
2013-04-07 08:57:00,67.5,61.5,30.11,SSW,200,0.0,4.0,81,0.00,CLR,,0.00,WeatherDisplay:10.37,2013-04-06 22:57:00,
2013-04-07 09:01:00,67.8,61.4,30.11,ESE,121,0.0,4.0,80,0.00,CLR,,0.00,WeatherDisplay:10.37,2013-04-06 23:01:00,
2013-04-07 09:06:00,68.4,61.6,30.11,South,175,3.0,4.0,79,0.00,CLR,,0.00,WeatherDisplay:10.37,2013-04-06 23:06:00,
2013-04-07 09:11:00,68.7,61.6,30.11,South,178,0.0,5.0,78,0.00,CLR,,0.00,WeatherDisplay:10.37,2013-04-06 23:11:00,
2013-04-07 09:16:00,69.1,61.6,30.11,SSE,166,0.0,2.0,77,0.00,CLR,,0.00,WeatherDisplay:10.37,2013-04-06 23:16:00,
2013-04-07 09:21:00,69.6,62.1,30.11,SSE,162,0.0,2.0,77,0.00,CLR,,0.00,WeatherDisplay:10.37,2013-04-06 23:21:00,
2013-04-07 09:26:00,70.3,62.7,30.11,SW,220,1.0,5.0,77,0.00,CLR,,0.00,WeatherDisplay:10.37,2013-04-06 23:26:00,
2013-04-07 09:31:00,70.9,62.9,30.11,SW,221,0.0,5.0,76,0.00,CLR,,0.00,WeatherDisplay:10.37,2013-04-06 23:31:00,
2013-04-07 09:37:00,71.4,63.1,30.10,SW,224,2.0,6.0,75,0.00,CLR,,0.00,WeatherDisplay:10.37,2013-04-06 23:37:00,
2013-04-07 09:41:00,71.8,62.7,30.10,SW,223,0.0,6.0,73,0.00,CLR,,0.00,WeatherDisplay:10.37,2013-04-06 23:41:00,
2013-04-07 09:46:00,71.8,62.7,30.10,SW,214,0.0,5.0,73,0.00,CLR,,0.00,WeatherDisplay:10.37,2013-04-06 23:46:00,
2013-04-07 09:51:00,71.4,61.9,30.10,South,184,0.0,2.0,72,0.00,CLR,,0.00,WeatherDisplay:10.37,2013-04-06 23:51:00,
2013-04-07 09:57:00,71.4,62.3,30.10,SSE,168,0.0,5.0,73,0.00,CLR,,0.00,WeatherDisplay:10.37,2013-04-06 23:57:00,
2013-04-07 10:02:00,71.8,62.7,30.09,SSW,194,0.0,3.0,73,0.00,CLR,,0.00,WeatherDisplay:10.37,2013-04-07 00:02:00,
2013-04-07 10:06:00,72.1,62.2,30.09,SSW,209,0.0,1.0,71,0.00,CLR,,0.00,WeatherDisplay:10.37,2013-04-07 00:06:00,
2013-04-07 10:11:00,72.0,62.0,30.09,West,276,0.0,0.0,71,0.00,CLR,,0.00,WeatherDisplay:10.37,2013-04-07 00:11:00,
2013-04-07 10:16:00,71.8,61.9,30.09,WSW,249,0.0,2.0,71,0.00,CLR,,0.00,WeatherDisplay:10.37,2013-04-07 00:16:00,
2013-04-07 10:22:00,72.2,62.3,30.09,WSW,242,0.0,3.0,71,0.00,CLR,,0.00,WeatherDisplay:10.37,2013-04-07 00:22:00,
2013-04-07 10:26:00,73.2,62.9,30.08,NW,310,0.0,2.0,70,0.00,CLR,,0.00,WeatherDisplay:10.37,2013-04-07 00:26:00,
2013-04-07 10:31:00,73.9,62.7,30.08,NNW,340,0.0,2.0,68,0.00,CLR,,0.00,WeatherDisplay:10.37,2013-04-07 00:31:00,
2013-04-07 10:36:00,74.5,62.9,30.08,NW,309,0.0,2.0,67,0.00,CLR,,0.00,WeatherDisplay:10.37,2013-04-07 00:36:00,
2013-04-07 10:41:00,75.0,62.9,30.08,West,270,1.0,3.0,66,0.00,CLR,,0.00,WeatherDisplay:10.37,2013-04-07 00:41:00,
2013-04-07 10:47:00,75.6,63.5,30.08,WNW,303,0.0,5.0,66,0.00,CLR,,0.00,WeatherDisplay:10.37,2013-04-07 00:47:00,
2013-04-07 10:51:00,76.1,63.9,30.08,West,270,3.0,5.0,66,0.00,CLR,,0.00,WeatherDisplay:10.37,2013-04-07 00:51:00,
2013-04-07 11:01:00,75.2,63.0,30.08,SW,216,2.0,5.0,66,0.00,CLR,,0.00,WeatherDisplay:10.37,2013-04-07 01:01:00,
2013-04-07 11:06:00,74.6,62.4,30.08,SW,219,2.0,4.0,66,0.00,CLR,,0.00,WeatherDisplay:10.37,2013-04-07 01:06:00,
2013-04-07 11:11:00,73.9,62.3,30.07,SW,224,2.0,6.0,67,0.00,CLR,,0.00,WeatherDisplay:10.37,2013-04-07 01:11:00,
2013-04-07 11:16:00,73.5,61.8,30.07,SSW,208,3.0,7.0,67,0.00,CLR,,0.00,WeatherDisplay:10.37,2013-04-07 01:16:00,
2013-04-07 11:21:00,73.2,62.0,30.07,SSW,205,1.0,6.0,68,0.00,CLR,,0.00,WeatherDisplay:10.37,2013-04-07 01:21:00,
2013-04-07 11:27:00,72.7,61.5,30.07,SW,229,0.0,3.0,68,0.00,CLR,,0.00,WeatherDisplay:10.37,2013-04-07 01:27:00,
2013-04-07 11:36:00,73.6,62.8,30.06,West,260,1.0,5.0,69,0.00,CLR,,0.00,WeatherDisplay:10.37,2013-04-07 01:36:00,
2013-04-07 11:41:00,74.0,62.8,30.05,SW,232,1.0,4.0,68,0.00,CLR,,0.00,WeatherDisplay:10.37,2013-04-07 01:41:00,
2013-04-07 11:46:00,74.8,63.1,30.05,WSW,249,0.0,2.0,67,0.00,CLR,,0.00,WeatherDisplay:10.37,2013-04-07 01:46:00,
2013-04-07 11:51:00,75.7,63.5,30.05,WSW,237,1.0,5.0,66,0.00,CLR,,0.00,WeatherDisplay:10.37,2013-04-07 01:51:00,
2013-04-07 11:56:00,77.1,64.4,30.04,SW,236,2.0,6.0,65,0.00,CLR,,0.00,WeatherDisplay:10.37,2013-04-07 01:56:00,
2013-04-07 12:01:00,77.7,64.1,30.05,WSW,250,2.0,6.0,63,0.00,CLR,,0.00,WeatherDisplay:10.37,2013-04-07 02:01:00,
2013-04-07 12:06:00,78.3,64.2,30.04,SW,234,2.0,7.0,62,0.00,CLR,,0.00,WeatherDisplay:10.37,2013-04-07 02:06:00,
2013-04-07 12:11:00,79.0,63.9,30.04,SW,220,1.0,6.0,60,0.00,CLR,,0.00,WeatherDisplay:10.37,2013-04-07 02:11:00,
2013-04-07 12:16:00,79.4,63.8,30.04,SW,224,0.0,2.0,59,0.00,CLR,,0.00,WeatherDisplay:10.37,2013-04-07 02:16:00,
2013-04-07 12:21:00,79.9,63.8,30.04,SW,223,0.0,3.0,58,0.00,CLR,,0.00,WeatherDisplay:10.37,2013-04-07 02:21:00,
2013-04-07 12:27:00,80.2,63.1,30.03,SSW,212,0.0,2.0,56,0.00,CLR,,0.00,WeatherDisplay:10.37,2013-04-07 02:27:00,
2013-04-07 12:37:00,79.9,62.3,30.03,North,356,0.0,0.0,55,0.00,CLR,,0.00,WeatherDisplay:10.37,2013-04-07 02:37:00,
2013-04-07 12:41:00,79.7,62.6,30.03,WNW,290,1.0,6.0,56,0.00,CLR,,0.00,WeatherDisplay:10.37,2013-04-07 02:41:00,
2013-04-07 12:46:00,79.5,62.4,30.03,West,274,0.0,2.0,56,0.00,CLR,,0.00,WeatherDisplay:10.37,2013-04-07 02:46:00,
2013-04-07 12:51:00,79.0,62.0,30.03,West,280,1.0,2.0,56,0.00,CLR,,0.00,WeatherDisplay:10.37,2013-04-07 02:51:00,
2013-04-07 12:56:00,78.0,62.0,30.03,NW,312,2.0,4.0,58,0.00,CLR,,0.00,WeatherDisplay:10.37,2013-04-07 02:56:00,
2013-04-07 13:01:00,76.9,61.5,30.03,NW,319,0.0,2.0,59,0.00,CLR,,0.00,WeatherDisplay:10.37,2013-04-07 03:01:00,
2013-04-07 13:06:00,76.2,61.3,30.02,NW,319,0.0,3.0,60,0.00,CLR,,0.00,WeatherDisplay:10.37,2013-04-07 03:06:00,
2013-04-07 13:11:00,75.8,61.4,30.02,NW,320,1.0,4.0,61,0.00,CLR,,0.00,WeatherDisplay:10.37,2013-04-07 03:11:00,
2013-04-07 13:16:00,75.4,61.5,30.02,NW,307,6.0,8.0,62,0.00,CLR,,0.00,WeatherDisplay:10.37,2013-04-07 03:16:00,
2013-04-07 13:22:00,75.0,61.1,30.02,NW,315,1.0,2.0,62,0.00,CLR,,0.00,WeatherDisplay:10.37,2013-04-07 03:22:00,
2013-04-07 13:27:00,74.5,61.1,30.02,NW,311,1.0,5.0,63,0.00,CLR,,0.00,WeatherDisplay:10.37,2013-04-07 03:27:00,
2013-04-07 13:31:00,74.1,60.7,30.01,NW,311,0.0,3.0,63,0.00,CLR,,0.00,WeatherDisplay:10.37,2013-04-07 03:31:00,
2013-04-07 13:36:00,73.9,61.0,30.01,NNW,329,0.0,0.0,64,0.00,CLR,,0.00,WeatherDisplay:10.37,2013-04-07 03:36:00,
2013-04-07 13:42:00,73.8,60.8,30.02,NNW,329,2.0,5.0,64,0.00,CLR,,0.00,WeatherDisplay:10.37,2013-04-07 03:42:00,
2013-04-07 13:46:00,73.8,60.8,30.02,NW,318,0.0,2.0,64,0.00,CLR,,0.00,WeatherDisplay:10.37,2013-04-07 03:46:00,
2013-04-07 13:51:00,74.1,61.6,30.01,NW,326,1.0,2.0,65,0.00,CLR,,0.00,WeatherDisplay:10.37,2013-04-07 03:51:00,
2013-04-07 13:57:00,75.0,62.4,30.02,North,354,0.0,3.0,65,0.00,CLR,,0.00,WeatherDisplay:10.37,2013-04-07 03:57:00,
2013-04-07 14:01:00,75.4,62.4,30.02,NNW,336,1.0,2.0,64,0.00,CLR,,0.00,WeatherDisplay:10.37,2013-04-07 04:01:00,
2013-04-07 14:06:00,75.2,62.2,30.02,NNW,332,0.0,2.0,64,0.00,CLR,,0.00,WeatherDisplay:10.37,2013-04-07 04:06:00,
2013-04-07 14:11:00,74.8,61.8,30.02,NNW,330,0.0,0.0,64,0.00,CLR,,0.00,WeatherDisplay:10.37,2013-04-07 04:11:00,
2013-04-07 14:16:00,74.5,61.5,30.02,NNW,346,0.0,3.0,64,0.00,CLR,,0.00,WeatherDisplay:10.37,2013-04-07 04:16:00,
2013-04-07 14:21:00,74.1,61.2,30.02,NNW,328,0.0,1.0,64,0.00,CLR,,0.00,WeatherDisplay:10.37,2013-04-07 04:21:00,
2013-04-07 14:26:00,73.9,61.0,30.02,WNW,298,0.0,4.0,64,0.00,CLR,,0.00,WeatherDisplay:10.37,2013-04-07 04:26:00,
2013-04-07 14:32:00,73.6,60.7,30.01,NW,305,0.0,0.0,64,0.00,CLR,,0.00,WeatherDisplay:10.37,2013-04-07 04:32:00,
2013-04-07 14:41:00,73.6,60.6,30.02,NW,320,0.0,0.0,64,0.00,CLR,,0.00,WeatherDisplay:10.37,2013-04-07 04:41:00,
2013-04-07 14:46:00,73.2,60.3,30.01,NW,325,0.0,2.0,64,0.00,CLR,,0.00,WeatherDisplay:10.37,2013-04-07 04:46:00,
2013-04-07 14:51:00,73.2,60.3,30.01,NW,313,0.0,0.0,64,0.00,CLR,,0.00,WeatherDisplay:10.37,2013-04-07 04:51:00,
2013-04-07 14:56:00,73.2,60.3,30.01,NW,319,0.0,0.0,64,0.00,CLR,,0.00,WeatherDisplay:10.37,2013-04-07 04:56:00,
2013-04-07 15:06:00,73.6,61.1,30.01,NNE,23,1.0,5.0,65,0.00,CLR,,0.00,WeatherDisplay:10.37,2013-04-07 05:06:00,
2013-04-07 15:11:00,73.9,61.4,30.01,NNE,27,0.0,3.0,65,0.00,CLR,,0.00,WeatherDisplay:10.37,2013-04-07 05:11:00,
2013-04-07 15:16:00,73.9,61.0,30.01,NNW,336,0.0,4.0,64,0.00,CLR,,0.00,WeatherDisplay:10.37,2013-04-07 05:16:00,
2013-04-07 15:22:00,74.1,61.2,30.01,NW,321,0.0,0.0,64,0.00,CLR,,0.00,WeatherDisplay:10.37,2013-04-07 05:22:00,
2013-04-07 15:26:00,74.1,60.7,30.01,North,1,1.0,3.0,63,0.00,CLR,,0.00,WeatherDisplay:10.37,2013-04-07 05:26:00,
2013-04-07 15:32:00,74.1,60.3,30.01,NNW,327,5.0,5.0,62,0.00,CLR,,0.00,WeatherDisplay:10.37,2013-04-07 05:32:00,
2013-04-07 15:36:00,74.1,59.8,30.01,NNW,329,0.0,5.0,61,0.00,CLR,,0.00,WeatherDisplay:10.37,2013-04-07 05:36:00,
2013-04-07 15:42:00,74.2,59.9,30.01,NW,314,1.0,4.0,61,0.00,CLR,,0.00,WeatherDisplay:10.37,2013-04-07 05:42:00,
2013-04-07 15:46:00,74.2,59.9,30.01,NW,309,0.0,5.0,61,0.00,CLR,,0.00,WeatherDisplay:10.37,2013-04-07 05:46:00,
2013-04-07 15:51:00,74.2,59.9,30.01,NW,318,1.0,3.0,61,0.00,CLR,,0.00,WeatherDisplay:10.37,2013-04-07 05:51:00,
2013-04-07 15:57:00,74.1,59.8,30.01,NNW,334,1.0,2.0,61,0.00,CLR,,0.00,WeatherDisplay:10.37,2013-04-07 05:57:00,
2013-04-07 16:06:00,74.1,59.8,30.01,NNW,327,0.0,0.0,61,0.00,CLR,,0.00,WeatherDisplay:10.37,2013-04-07 06:06:00,
2013-04-07 16:11:00,74.1,59.3,30.01,North,352,0.0,4.0,60,0.00,CLR,,0.00,WeatherDisplay:10.37,2013-04-07 06:11:00,
2013-04-07 16:16:00,73.9,59.2,30.01,NNW,336,1.0,3.0,60,0.00,CLR,,0.00,WeatherDisplay:10.37,2013-04-07 06:16:00,
2013-04-07 16:22:00,73.6,58.8,30.01,NW,322,0.0,0.0,60,0.00,CLR,,0.00,WeatherDisplay:10.37,2013-04-07 06:22:00,
2013-04-07 16:31:00,73.0,58.3,30.01,NNW,331,0.0,2.0,60,0.00,CLR,,0.00,WeatherDisplay:10.37,2013-04-07 06:31:00,
2013-04-07 16:36:00,72.8,58.1,30.01,North,354,0.0,2.0,60,0.00,CLR,,0.00,WeatherDisplay:10.37,2013-04-07 06:36:00,
2013-04-07 16:41:00,72.5,58.3,30.01,NNE,22,0.0,2.0,61,0.00,CLR,,0.00,WeatherDisplay:10.37,2013-04-07 06:41:00,
2013-04-07 16:46:00,72.3,58.1,30.01,NE,38,0.0,2.0,61,0.00,CLR,,0.00,WeatherDisplay:10.37,2013-04-07 06:46:00,
2013-04-07 16:56:00,72.1,58.4,30.01,East,79,0.0,0.0,62,0.00,CLR,,0.00,WeatherDisplay:10.37,2013-04-07 06:56:00,
2013-04-07 17:01:00,71.8,58.1,30.02,NNE,20,0.0,0.0,62,0.00,CLR,,0.00,WeatherDisplay:10.37,2013-04-07 07:01:00,
2013-04-07 17:06:00,71.8,58.1,30.02,NNW,327,0.0,0.0,62,0.00,CLR,,0.00,WeatherDisplay:10.37,2013-04-07 07:06:00,
2013-04-07 17:11:00,71.4,57.7,30.02,NW,309,0.0,0.0,62,0.00,CLR,,0.00,WeatherDisplay:10.37,2013-04-07 07:11:00,
2013-04-07 17:16:00,71.4,57.7,30.02,NW,309,0.0,0.0,62,0.00,CLR,,0.00,WeatherDisplay:10.37,2013-04-07 07:16:00,
2013-04-07 17:21:00,71.2,58.0,30.02,NW,304,0.0,0.0,63,0.00,CLR,,0.00,WeatherDisplay:10.37,2013-04-07 07:21:00,
2013-04-07 17:26:00,70.9,57.7,30.02,WNW,297,0.0,0.0,63,0.00,CLR,,0.00,WeatherDisplay:10.37,2013-04-07 07:26:00,
2013-04-07 17:31:00,70.7,57.9,30.02,WNW,302,0.0,0.0,64,0.00,CLR,,0.00,WeatherDisplay:10.37,2013-04-07 07:31:00,
2013-04-07 17:36:00,70.5,58.2,30.03,WNW,294,0.0,0.0,65,0.00,CLR,,0.00,WeatherDisplay:10.37,2013-04-07 07:36:00,
2013-04-07 17:41:00,70.3,58.0,30.03,West,268,0.0,0.0,65,0.00,CLR,,0.00,WeatherDisplay:10.37,2013-04-07 07:41:00,
2013-04-07 17:52:00,70.0,58.1,30.04,WSW,241,0.0,2.0,66,0.00,CLR,,0.00,WeatherDisplay:10.37,2013-04-07 07:52:00,
2013-04-07 17:56:00,69.6,57.8,30.04,SW,225,0.0,0.0,66,0.00,CLR,,0.00,WeatherDisplay:10.37,2013-04-07 07:56:00,
2013-04-07 18:01:00,69.6,57.8,30.04,SW,217,0.0,0.0,66,0.00,CLR,,0.00,WeatherDisplay:10.37,2013-04-07 08:01:00,
2013-04-07 18:06:00,69.4,58.0,30.05,SSW,209,0.0,0.0,67,0.00,CLR,,0.00,WeatherDisplay:10.37,2013-04-07 08:06:00,
2013-04-07 18:12:00,69.3,57.8,30.05,SW,214,0.0,0.0,67,0.00,CLR,,0.00,WeatherDisplay:10.37,2013-04-07 08:12:00,
2013-04-07 18:16:00,69.1,57.7,30.05,WSW,249,0.0,0.0,67,0.00,CLR,,0.00,WeatherDisplay:10.37,2013-04-07 08:16:00,
2013-04-07 18:21:00,68.9,57.5,30.05,WNW,284,0.0,0.0,67,0.00,CLR,,0.00,WeatherDisplay:10.37,2013-04-07 08:21:00,
2013-04-07 18:31:00,68.5,57.6,30.06,SW,222,0.0,0.0,68,0.00,CLR,,0.00,WeatherDisplay:10.37,2013-04-07 08:31:00,
2013-04-07 18:36:00,68.4,57.8,30.06,SW,225,0.0,0.0,69,0.00,CLR,,0.00,WeatherDisplay:10.37,2013-04-07 08:36:00,
2013-04-07 18:41:00,68.2,57.6,30.06,SW,232,0.0,0.0,69,0.00,CLR,,0.00,WeatherDisplay:10.37,2013-04-07 08:41:00,
2013-04-07 18:46:00,68.1,57.5,30.06,SSW,208,0.0,0.0,69,0.00,CLR,,0.00,WeatherDisplay:10.37,2013-04-07 08:46:00,
2013-04-07 18:52:00,67.8,57.3,30.06,SSW,203,0.0,0.0,69,0.00,CLR,,0.00,WeatherDisplay:10.37,2013-04-07 08:52:00,
2013-04-07 18:56:00,67.8,57.3,30.06,SSW,205,0.0,0.0,69,0.00,CLR,,0.00,WeatherDisplay:10.37,2013-04-07 08:56:00,
2013-04-07 19:01:00,67.7,57.5,30.06,SSW,212,0.0,0.0,70,0.00,CLR,,0.00,WeatherDisplay:10.37,2013-04-07 09:01:00,
2013-04-07 19:06:00,67.6,57.5,30.06,SW,215,0.0,0.0,70,0.00,CLR,,0.00,WeatherDisplay:10.37,2013-04-07 09:06:00,
2013-04-07 19:11:00,67.6,57.5,30.06,SSW,211,0.0,0.0,70,0.00,CLR,,0.00,WeatherDisplay:10.37,2013-04-07 09:11:00,
2013-04-07 19:21:00,67.3,57.6,30.07,NNW,342,0.0,0.0,71,0.00,CLR,,0.00,WeatherDisplay:10.37,2013-04-07 09:21:00,
2013-04-07 19:26:00,67.1,57.4,30.07,NNE,27,0.0,0.0,71,0.00,CLR,,0.00,WeatherDisplay:10.37,2013-04-07 09:26:00,
2013-04-07 19:31:00,66.9,57.2,30.07,NE,50,0.0,0.0,71,0.00,CLR,,0.00,WeatherDisplay:10.37,2013-04-07 09:31:00,
2013-04-07 19:36:00,66.7,57.0,30.07,SSE,150,0.0,0.0,71,0.00,CLR,,0.00,WeatherDisplay:10.37,2013-04-07 09:36:00,
2013-04-07 19:41:00,66.6,56.9,30.08,South,177,0.0,0.0,71,0.00,CLR,,0.00,WeatherDisplay:10.37,2013-04-07 09:41:00,
2013-04-07 19:46:00,66.4,56.7,30.07,SSE,164,0.0,0.0,71,0.00,CLR,,0.00,WeatherDisplay:10.37,2013-04-07 09:46:00,
2013-04-07 19:51:00,66.2,56.9,30.07,SSE,158,0.0,0.0,72,0.00,CLR,,0.00,WeatherDisplay:10.37,2013-04-07 09:51:00,
2013-04-07 20:01:00,66.0,57.1,30.08,South,181,0.0,0.0,73,0.00,CLR,,0.00,WeatherDisplay:10.37,2013-04-07 10:01:00,
2013-04-07 20:06:00,65.8,56.9,30.08,SSW,198,0.0,0.0,73,0.00,CLR,,0.00,WeatherDisplay:10.37,2013-04-07 10:06:00,
2013-04-07 20:11:00,65.5,56.6,30.08,South,189,0.0,0.0,73,0.00,CLR,,0.00,WeatherDisplay:10.37,2013-04-07 10:11:00,
2013-04-07 20:16:00,65.5,57.0,30.08,South,185,0.0,0.0,74,0.00,CLR,,0.00,WeatherDisplay:10.37,2013-04-07 10:16:00,
2013-04-07 20:21:00,65.3,56.8,30.08,South,186,0.0,0.0,74,0.00,CLR,,0.00,WeatherDisplay:10.37,2013-04-07 10:21:00,
2013-04-07 20:26:00,65.1,56.6,30.08,SSW,192,0.0,0.0,74,0.00,CLR,,0.00,WeatherDisplay:10.37,2013-04-07 10:26:00,
2013-04-07 20:36:00,64.9,56.5,30.08,SW,214,0.0,0.0,74,0.00,CLR,,0.00,WeatherDisplay:10.37,2013-04-07 10:36:00,
2013-04-07 20:41:00,64.8,56.3,30.07,SSW,211,0.0,0.0,74,0.00,CLR,,0.00,WeatherDisplay:10.37,2013-04-07 10:41:00,
2013-04-07 20:51:00,64.6,56.5,30.08,SW,232,0.0,0.0,75,0.00,CLR,,0.00,WeatherDisplay:10.37,2013-04-07 10:51:00,
2013-04-07 20:56:00,64.6,56.5,30.08,WSW,255,0.0,0.0,75,0.00,CLR,,0.00,WeatherDisplay:10.37,2013-04-07 10:56:00,
2013-04-07 21:01:00,64.4,56.3,30.08,West,259,0.0,0.0,75,0.00,CLR,,0.00,WeatherDisplay:10.37,2013-04-07 11:01:00,
2013-04-07 21:16:00,64.2,56.5,30.08,WSW,250,0.0,0.0,76,0.00,CLR,,0.00,WeatherDisplay:10.37,2013-04-07 11:16:00,
2013-04-07 21:21:00,64.2,56.5,30.09,WSW,238,0.0,0.0,76,0.00,CLR,,0.00,WeatherDisplay:10.37,2013-04-07 11:21:00,
2013-04-07 21:26:00,64.0,56.3,30.08,SW,220,0.0,0.0,76,0.00,CLR,,0.00,WeatherDisplay:10.37,2013-04-07 11:26:00,
2013-04-07 21:32:00,64.0,56.3,30.08,SW,216,0.0,0.0,76,0.00,CLR,,0.00,WeatherDisplay:10.37,2013-04-07 11:32:00,
2013-04-07 21:41:00,63.7,56.3,30.08,SW,226,0.0,0.0,77,0.00,CLR,,0.00,WeatherDisplay:10.37,2013-04-07 11:41:00,
2013-04-07 21:52:00,63.7,56.3,30.08,SSW,208,0.0,0.0,77,0.00,CLR,,0.00,WeatherDisplay:10.37,2013-04-07 11:52:00,
2013-04-07 21:57:00,63.5,56.2,30.08,SSW,207,0.0,0.0,77,0.00,CLR,,0.00,WeatherDisplay:10.37,2013-04-07 11:57:00,
2013-04-07 22:01:00,63.5,56.2,30.08,SSW,194,0.0,0.0,77,0.00,CLR,,0.00,WeatherDisplay:10.37,2013-04-07 12:01:00,
2013-04-07 22:06:00,63.3,56.0,30.08,South,180,0.0,0.0,77,0.00,CLR,,0.00,WeatherDisplay:10.37,2013-04-07 12:06:00,
2013-04-07 22:12:00,63.3,56.0,30.08,South,181,0.0,0.0,77,0.00,CLR,,0.00,WeatherDisplay:10.37,2013-04-07 12:12:00,
2013-04-07 22:16:00,63.1,55.8,30.08,South,187,0.0,0.0,77,0.00,CLR,,0.00,WeatherDisplay:10.37,2013-04-07 12:16:00,
2013-04-07 22:26:00,63.1,56.2,30.07,SSW,204,0.0,0.0,78,0.00,CLR,,0.00,WeatherDisplay:10.37,2013-04-07 12:26:00,
2013-04-07 22:31:00,63.0,56.0,30.07,SSW,204,0.0,0.0,78,0.00,CLR,,0.00,WeatherDisplay:10.37,2013-04-07 12:31:00,
2013-04-07 22:36:00,63.0,56.0,30.07,SW,226,0.0,0.0,78,0.00,CLR,,0.00,WeatherDisplay:10.37,2013-04-07 12:36:00,
2013-04-07 22:41:00,62.8,55.8,30.07,SW,223,0.0,0.0,78,0.00,CLR,,0.00,WeatherDisplay:10.37,2013-04-07 12:41:00,
2013-04-07 22:47:00,62.8,55.8,30.08,SSW,210,0.0,0.0,78,0.00,CLR,,0.00,WeatherDisplay:10.37,2013-04-07 12:47:00,
2013-04-07 22:52:00,62.8,55.8,30.07,SSW,204,0.0,0.0,78,0.00,CLR,,0.00,WeatherDisplay:10.37,2013-04-07 12:52:00,
2013-04-07 23:01:00,62.4,55.5,30.08,SSW,203,0.0,0.0,78,0.00,CLR,,0.00,WeatherDisplay:10.37,2013-04-07 13:01:00,
2013-04-07 23:06:00,62.4,55.5,30.08,SW,220,0.0,0.0,78,0.00,CLR,,0.00,WeatherDisplay:10.37,2013-04-07 13:06:00,
2013-04-07 23:11:00,62.4,55.5,30.08,SSW,200,0.0,0.0,78,0.00,CLR,,0.00,WeatherDisplay:10.37,2013-04-07 13:11:00,
2013-04-07 23:16:00,62.4,55.5,30.08,South,185,0.0,0.0,78,0.00,CLR,,0.00,WeatherDisplay:10.37,2013-04-07 13:16:00,
2013-04-07 23:21:00,62.2,55.3,30.08,SSW,196,0.0,0.0,78,0.00,CLR,,0.00,WeatherDisplay:10.37,2013-04-07 13:21:00,
2013-04-07 23:31:00,62.1,55.1,30.08,ESE,112,0.0,0.0,78,0.00,CLR,,0.00,WeatherDisplay:10.37,2013-04-07 13:31:00,
2013-04-07 23:36:00,61.9,54.9,30.08,North,358,0.0,0.0,78,0.00,CLR,,0.00,WeatherDisplay:10.37,2013-04-07 13:36:00,
2013-04-07 23:46:00,61.8,55.2,30.07,South,183,0.0,0.0,79,0.00,CLR,,0.00,WeatherDisplay:10.37,2013-04-07 13:46:00,
2013-04-07 23:51:00,61.7,55.1,30.08,South,180,0.0,0.0,79,0.00,CLR,,0.00,WeatherDisplay:10.37,2013-04-07 13:51:00,
2013-04-07 23:56:00,61.7,55.1,30.07,SSW,202,0.0,0.0,79,0.00,CLR,,0.00,WeatherDisplay:10.37,2013-04-07 13:56:00,